DW9923 Weather Reports


Display with metric or nautical units.
time (UTC)temp
F
wind
direction
speed
MPH
gust
MPH
rain 1hr
in
rain 24hr
in
rain mn
in
humidity
%
barometer
mb
20260505174859 69 327 0.0 5.0 0.00 0.00 0.00 56
20260505174340 69 18 0.0 3.0 0.00 0.00 0.00 59
20260505173849 68 300 0.0 5.0 0.00 0.00 0.00 55
20260505173346 69 300 0.0 5.0 0.00 0.00 0.00 56
20260505172846 68 300 1.0 5.0 0.00 0.00 0.00 56
20260505172345 69 278 1.0 5.0 0.00 0.00 0.00 56
20260505171827 69 314 0.0 3.0 0.00 0.00 0.00 58
20260505171334 68 89 0.0 6.0 0.00 0.00 0.00 59
20260505170814 67 165 0.0 6.0 0.00 0.00 0.00 61
20260505170318 67 296 0.0 4.0 0.00 0.00 0.00 60
20260505165813 66 296 0.0 4.0 0.00 0.00 0.00 63
20260505165319 65 296 0.0 1.0 0.00 0.00 0.00 67
20260505164804 64 296 0.0 2.0 0.00 0.00 0.00 67
20260505163628 63 296 1.0 6.0 0.00 0.00 0.00 70
20260505163127 62 287 1.0 4.0 0.00 0.00 0.00 70
20260505162635 62 284 1.0 4.0 0.00 0.00 0.00 72
20260505162136 61 300 0.0 2.0 0.00 0.00 0.00 75
20260505161635 60 300 0.0 2.0 0.00 0.00 0.00 77
20260505161138 59 300 0.0 3.0 0.00 0.00 0.00 80
20260505160621 58 227 0.0 1.0 0.00 0.00 0.00 84
20260505160119 57 227 0.0 0.0 0.00 0.00 0.00 85
20260505152112 54 227 0.0 0.0 0.00 0.00 0.00 89
20260505151602 54 227 0.0 0.0 0.00 0.00 0.00 89
20260505151054 53 227 0.0 0.0 0.00 0.00 0.00 89
20260505150601 53 227 0.0 0.0 0.00 0.00 0.00 90
20260505140232 50 227 0.0 0.0 0.00 0.00 0.00 89
20260505124250 50 227 0.0 0.0 0.00 0.00 0.00 88
20260505122459 50 227 0.0 0.0 0.00 0.00 0.00 88
20260505121955 50 227 0.0 0.0 0.00 0.00 0.00 88
20260505121438 49 227 0.0 0.0 0.00 0.00 0.00 88
20260505120317 49 227 0.0 0.0 0.00 0.00 0.00 88
20260505115149 49 227 0.0 0.0 0.00 0.00 0.00 88
20260505114648 49 227 0.0 0.0 0.00 0.00 0.00 88
20260505114151 49 227 0.0 0.0 0.00 0.00 0.00 88
20260505113659 49 227 0.0 0.0 0.00 0.00 0.00 88
20260505113206 49 227 0.0 0.0 0.00 0.00 0.00 88
20260505112658 49 227 0.0 0.0 0.00 0.00 0.00 87
20260505111526 49 227 0.0 0.0 0.00 0.00 0.00 87
20260505111017 49 227 0.0 0.0 0.00 0.00 0.00 87
20260505110509 49 227 0.0 0.0 0.00 0.00 0.00 86
20260505101944 50 227 0.0 0.0 0.00 0.00 0.00 82
20260505101434 51 227 0.0 0.0 0.00 0.00 0.00 81
20260505100922 51 227 0.0 0.0 0.00 0.00 0.00 81
20260505100410 51 227 0.0 0.0 0.00 0.00 0.00 81
20260505095911 51 227 0.0 0.0 0.00 0.00 0.00 81
20260505095353 52 227 0.0 0.0 0.00 0.00 0.00 81
20260505094848 52 227 0.0 0.0 0.00 0.00 0.00 81
20260505094337 52 227 0.0 0.0 0.00 0.00 0.00 81
20260505093845 52 227 0.0 0.0 0.00 0.00 0.00 81
20260505093332 53 227 0.0 0.0 0.00 0.00 0.00 81
20260505092840 53 227 0.0 0.0 0.00 0.00 0.00 81
20260505092349 53 227 0.0 0.0 0.00 0.00 0.00 81
20260505091856 53 227 0.0 0.0 0.00 0.00 0.00 81
20260505091342 53 227 0.0 0.0 0.00 0.00 0.00 82
20260505090824 53 227 0.0 0.0 0.00 0.00 0.00 82
20260505090322 53 227 0.0 0.0 0.00 0.00 0.00 81
20260505085815 54 227 0.0 0.0 0.00 0.00 0.00 81
20260505084657 54 227 0.0 0.0 0.00 0.00 0.00 81
20260505084143 54 227 0.0 0.0 0.00 0.00 0.00 81
20260505083643 54 227 0.0 0.0 0.00 0.00 0.00 81
20260505081846 54 227 0.0 0.0 0.00 0.00 0.00 80
20260505081335 54 227 0.0 0.0 0.00 0.00 0.00 80
20260505080214 54 227 0.0 0.0 0.00 0.00 0.00 80
20260505075717 54 227 0.0 0.0 0.00 0.00 0.00 80
20260505074557 55 227 0.0 0.0 0.00 0.00 0.00 80
20260505074105 55 227 0.0 0.0 0.00 0.00 0.00 80
20260505073555 55 227 0.0 0.0 0.00 0.00 0.00 80
20260505073042 55 227 0.0 0.0 0.00 0.00 0.00 80
20260505072536 55 227 0.0 0.0 0.00 0.00 0.00 79
20260505072043 55 227 0.0 0.0 0.00 0.00 0.00 79
20260505071553 55 227 0.0 0.0 0.00 0.00 0.00 79
20260505071036 55 227 0.0 0.0 0.00 0.00 0.00 79
20260505070519 55 227 0.0 0.0 0.00 0.00 0.00 79
20260505065330 55 227 0.0 0.0 0.00 0.00 0.00 79
20260505064149 55 227 0.0 0.0 0.00 0.00 0.00 79
20260505063646 55 227 0.0 0.0 0.00 0.00 0.00 79
20260505063152 55 227 0.0 0.0 0.00 0.00 0.00 79
20260505060725 55 227 0.0 0.0 0.00 0.00 0.00 78
20260505060215 55 227 0.0 0.0 0.00 0.00 0.00 78
20260505055711 55 227 0.0 0.0 0.00 0.00 0.00 78
20260505055152 55 227 0.0 0.0 0.00 0.00 0.00 78
20260505054700 55 227 0.0 0.0 0.00 0.00 0.00 78
20260505054157 55 227 0.0 0.0 0.00 0.00 0.00 78
20260505053643 55 227 0.0 0.0 0.00 0.00 0.00 77
20260505053140 55 227 0.0 0.0 0.00 0.00 0.00 77
20260505052642 55 227 0.0 0.0 0.00 0.00 0.00 76
20260505052147 55 227 0.0 0.0 0.00 0.00 0.00 76
20260505051037 55 227 0.0 0.0 0.00 0.00 0.00 76
20260505050538 55 227 0.0 0.0 0.00 0.00 0.00 76
20260505041733 56 227 0.0 0.0 0.00 0.00 0.00 76
20260505041243 56 227 0.0 0.0 0.00 0.00 0.00 76
20260505040751 56 227 0.0 0.0 0.00 0.00 0.00 75
20260505040248 56 227 0.0 0.0 0.00 0.00 0.00 75
20260505035752 56 227 0.0 0.0 0.00 0.00 0.00 75
20260505035246 57 227 0.0 0.0 0.00 0.00 0.00 74
20260505034737 57 227 0.0 0.0 0.00 0.00 0.00 73
20260505034244 57 227 0.0 0.0 0.00 0.00 0.00 73
20260505033752 57 227 0.0 0.0 0.00 0.00 0.00 72
20260505032627 58 227 0.0 0.0 0.00 0.00 0.00 71
20260505032112 58 227 0.0 0.0 0.00 0.00 0.00 71
20260505030948 58 227 0.0 0.0 0.00 0.00 0.00 70
20260505030456 59 227 0.0 3.0 0.00 0.00 0.00 69
20260505025949 59 311 0.0 0.0 0.00 0.00 0.00 69
20260505025446 59 311 0.0 0.0 0.00 0.00 0.00 68
20260505024932 59 311 0.0 0.0 0.00 0.00 0.00 68
20260505024422 59 311 0.0 0.0 0.00 0.00 0.00 68
20260505023926 60 311 0.0 0.0 0.00 0.00 0.00 68
20260505022755 60 311 0.0 0.0 0.00 0.00 0.00 66
20260505022241 61 311 0.0 0.0 0.00 0.00 0.00 66
20260505021111 61 309 0.0 1.0 0.00 0.00 0.00 65
20260505020002 62 333 0.0 2.0 0.00 0.00 0.00 65
20260505015507 62 345 0.0 2.0 0.00 0.00 0.00 64
20260505015002 62 345 0.0 5.0 0.00 0.00 0.00 63
20260505014506 62 299 0.0 5.0 0.00 0.00 0.00 63
20260505014009 63 299 1.0 6.0 0.00 0.00 0.00 62
20260505013506 63 321 1.0 6.0 0.00 0.00 0.00 61
20260505013000 63 294 2.0 6.0 0.00 0.00 0.00 61
20260505012503 64 299 1.0 6.0 0.00 0.00 0.00 62
20260505011953 64 242 1.0 5.0 0.00 0.00 0.00 62
20260505010837 64 309 0.0 2.0 0.00 0.00 0.00 63
20260505010330 64 309 0.0 3.0 0.00 0.00 0.00 62
20260505005207 64 309 0.0 0.0 0.00 0.00 0.00 62
20260505004658 64 309 0.0 0.0 0.00 0.00 0.00 63
20260505003506 65 307 1.0 6.0 0.00 0.00 0.00 62
20260505003001 65 298 1.0 8.0 0.00 0.00 0.00 61
20260505002502 65 314 1.0 8.0 0.00 0.00 0.00 61
20260505001943 66 314 2.0 8.0 0.00 0.00 0.00 60
20260505001429 66 309 2.0 8.0 0.00 0.00 0.00 59
20260505000931 67 290 1.0 8.0 0.00 0.00 0.00 59
20260505000438 67 300 0.0 8.0 0.00 0.00 0.00 60
20260504235312 66 302 2.0 9.0 0.00 0.00 0.00 61
20260504234814 66 309 2.0 9.0 0.00 0.00 0.00 59
20260504234316 67 292 2.0 9.0 0.00 0.00 0.00 57
20260504233756 67 5 1.0 7.0 0.00 0.00 0.00 57
20260504233303 67 304 1.0 7.0 0.00 0.00 0.00 56
20260504232810 68 296 1.0 11.0 0.00 0.00 0.00 56
20260504232306 68 292 2.0 11.0 0.00 0.00 0.00 55
20260504231748 69 302 2.0 11.0 0.00 0.00 0.00 54
20260504231231 70 32 2.0 11.0 0.00 0.00 0.00 55
20260504230719 70 298 2.0 10.0 0.00 0.00 0.00 55
20260504224924 70 331 3.0 10.0 0.00 0.00 0.00 53
20260504224408 70 274 3.0 9.0 0.00 0.00 0.00 50
20260504223912 71 288 2.0 9.0 0.00 0.00 0.00 51
20260504222750 71 331 1.0 8.0 0.00 0.00 0.00 51
20260504222258 71 311 2.0 8.0 0.00 0.00 0.00 51
20260504221752 71 333 2.0 7.0 0.00 0.00 0.00 53
20260504220622 71 288 2.0 10.0 0.00 0.00 0.00 50
20260504220119 71 321 2.0 10.0 0.00 0.00 0.00 49
20260504215603 71 311 3.0 10.0 0.00 0.00 0.00 51
20260504215059 71 284 3.0 10.0 0.00 0.00 0.00 48
20260504214608 71 101 3.0 8.0 0.00 0.00 0.00 47
20260504214054 72 83 2.0 8.0 0.00 0.00 0.00 48
20260504213602 72 283 2.0 8.0 0.00 0.00 0.00 48
20260504213045 72 302 1.0 6.0 0.00 0.00 0.00 48
20260504212531 72 334 1.0 6.0 0.00 0.00 0.00 48
20260504212018 72 13 2.0 6.0 0.00 0.00 0.00 47
20260504211511 71 5 1.0 7.0 0.00 0.00 0.00 49
20260504211019 71 0 1.0 7.0 0.00 0.00 0.00 52
20260504210524 71 244 2.0 7.0 0.00 0.00 0.00 49
20260504210030 70 300 2.0 7.0 0.00 0.00 0.00 50
20260504205527 70 294 2.0 7.0 0.00 0.00 0.00 49
20260504205017 70 29 2.0 7.0 0.00 0.00 0.00 49
20260504203904 69 299 1.0 7.0 0.00 0.00 0.00 50
20260504203413 69 335 1.0 7.0 0.00 0.00 0.00 51
20260504202911 69 299 2.0 7.0 0.00 0.00 0.00 51
20260504201749 69 305 3.0 9.0 0.00 0.00 0.00 50
20260504201255 69 296 3.0 9.0 0.00 0.00 0.00 51
20260504200753 69 315 3.0 9.0 0.00 0.00 0.00 52
20260504200236 69 298 2.0 7.0 0.00 0.00 0.00 52
20260504195739 69 348 1.0 6.0 0.00 0.00 0.00 52
20260504195239 69 286 1.0 6.0 0.00 0.00 0.00 52
20260504194740 70 317 1.0 9.0 0.00 0.00 0.00 54
20260504194248 69 275 0.0 9.0 0.00 0.00 0.00 54
20260504193730 69 52 2.0 9.0 0.00 0.00 0.00 52
20260504193214 70 289 3.0 9.0 0.00 0.00 0.00 51
20260504192706 70 307 3.0 8.0 0.00 0.00 0.00 52
20260504192211 70 92 3.0 8.0 0.00 0.00 0.00 50
20260504191045 70 330 2.0 7.0 0.00 0.00 0.00 48
20260504185852 70 300 2.0 6.0 0.00 0.00 0.00 47
20260504184711 69 299 1.0 5.0 0.00 0.00 0.00 49
20260504184202 68 290 1.0 6.0 0.00 0.00 0.00 50
20260504183701 68 258 1.0 6.0 0.00 0.00 0.00 50
20260504183209 69 287 1.0 6.0 0.00 0.00 0.00 50
20260504182717 69 19 0.0 6.0 0.00 0.00 0.00 50
20260504181539 69 302 0.0 4.0 0.00 0.00 0.00 48
20260504181038 69 302 0.0 4.0 0.00 0.00 0.00 50
20260504180522 69 302 0.0 10.0 0.00 0.00 0.00 51
20260504180010 69 302 1.0 10.0 0.00 0.00 0.00 52